Regional Weather Roundup
Issued by NWS

Home | Current Version | Previous Version | Text Only | Print | Product List | Glossary Off
Versions: 1 2 3 4 5 6 7 8 9 10 11 12 13 14 15 16 17 18 19 20 21 22 23 24 25 26 27 28 29 30 31 32 33 34 35 36 37 38 39 40 41 42 43 44 45 46 47 48 49 50

000
ASUS43 KLOT 011006
RWRIL

ILLINOIS REGIONAL WEATHER ROUNDUP
NATIONAL WEATHER SERVICE CHICAGO/ROMEOVILLE IL
500 AM CDT MON SEP 01 2014

NOTE: "FAIR" INDICATES FEW OR NO CLOUDS BELOW 12,000 FEET WITH NO
SIGNIFICANT WEATHER AND/OR OBSTRUCTIONS TO VISIBILITY.

* THESE STATIONS ARE NOT UNDER NWS QUALITY CONTROL. THEY ALSO MAY NOT
  REPORT WEATHER SUCH AS PRECIPITATION OR FOG.

ILZ001-002-007-009-015-016-024-011100-
NORTHWEST ILLINOIS

CITY           SKY/WX    TMP DP  RH WIND       PRES   REMARKS
MOLINE         MOCLDY    65  63  93 SE7       29.76F
STERLING*      CLOUDY    66  63  88 E5        29.77F
SAVANNA*       CLOUDY    66  63  90 E5        29.72F
$$

ILZ003-004-008-010-011-017-018-011100-
NORTH CENTRAL ILLINOIS

CITY           SKY/WX    TMP DP  RH WIND       PRES   REMARKS
ROCKFORD       CLOUDY    72  69  90 SW6       29.80F
FREEPORT*      LGT RAIN  68  63  85 W3        29.81F
ROCHELLE*      LGT RAIN  71  69  95 SW5       29.81S
DE KALB*       CLOUDY    69  68  98 S8        29.82R FOG
PERU*          DRIZZLE   72  70  93 W8        29.79F
$$

ILZ005-006-012>014-019>023-011100-
NORTHEAST ILLINOIS

CITY           SKY/WX    TMP DP  RH WIND       PRES   REMARKS
CHICAGO-OHARE  MOCLDY    72  67  84 S10       29.80F
CHICAGO-MIDWAY MOCLDY    74  71  91 S10       29.81F
AURORA         MOCLDY    72  69  90 S9        29.81S
LANSING*         N/A    N/A N/A N/A MISG        N/A
JOLIET*        MOCLDY    72  69  89 S7        29.81F
WAUKEGAN       CLEAR     72  69  90 S9        29.78F
DUPAGE AIRPORT MOCLDY    72  70  93 S10       29.79F
KANKAKEE*      MOCLDY    71  70  96 S12       29.84S
WHEELING       PTCLDY    74  70  87 S9        29.81F
MORRIS*        MOCLDY    72  72 100 S8        29.80F
ROMEOVILLE*    CLOUDY    72  71  97 S9        29.81S
NORTHERLY ISL    N/A     73  68  84 S10         N/A
$$

LMZ740>746-011100-
SOUTHERN LAKE MICHIGAN

STATION/POSITION SKY/WX   TEMP    WIND        PRES    VSBY  WAVE
                          AIR SEA DIR/SP/G                  HT/PER
                          (F)     (DEG/KT/KT) (MB)    (MI)  (FT/S)
SOUTHERN BUOY              72 70  180/ 16/ 17 1009.1F         3/ 4
WAUKEGAN HARBOR            71     190/  9/ 12   N/A
HARRISON CRIB              73     180/ 15/ 17   N/A
BURNHAM HARBOR             73     180/  8/ 12   N/A
CALUMET HARBOR             73     180/  7/ 11 1008.7S
MICHIGAN CITY              72     150/ 14/ 20   N/A
MICHIGAN CITY 6N           72 72  170/ 12/ 16   N/A           1/ 2
ST. JOSEPH                 72 72  160/ 12/ 14   N/A           1/ 2
$$

ILZ025>027-034>036-040-047-049-050-058-095>099-011100-
WEST-CENTRAL ILLINOIS

CITY           SKY/WX    TMP DP  RH WIND       PRES   REMARKS
QUINCY         CLOUDY    72  66  81 W7        29.82R
GALESBURG*     PTCLDY    65  64  97 CALM      29.79F
MACOMB*        MOCLDY    67  65  95 E5        29.82F
JACKSONVILLE*  MOCLDY    75  72  90 S10       29.83S
PITTSFIELD*    MOCLDY    74  69  83 S6        29.83S
$$

ILZ028>032-037-038-041>044-048-051>054-059>061-011100-
CENTRAL ILLINOIS

CITY           SKY/WX    TMP DP  RH WIND       PRES   REMARKS
PONTIAC        MOCLDY    73  73 100 S12G17    29.81F
DECATUR        PTCLDY    74  71  91 S14       29.86F
PEORIA         CLOUDY    73  66  78 CALM      29.80F
LACON*         CLOUDY    70  67  88 CALM      29.80S
LINCOLN*       CLEAR     74  71  92 S8        29.80S
SPRINGFIELD    PTCLDY    75  71  87 S10       29.83F
TAYLORVILLE    PTCLDY    72  70  94 S8        29.85S FOG
$$

ILZ033-039-045-046-055>057-062-063-011100-
EAST-CENTRAL ILLINOIS

CITY           SKY/WX    TMP DP  RH WIND       PRES   REMARKS
CHAMPAIGN      MOCLDY    72  71  97 S10       29.88F
DANVILLE*      MOCLDY    71  70  97 S8        29.86F
RANTOUL*       PTCLDY    73  70  89 S9        29.88S
MATTOON        MOCLDY    72  71  97 S8        29.88F
PARIS*         PTCLDY    72  71  97 S10       29.91S
$$

ILZ079-100>102-011100-
SOUTHWEST ILLINOIS

CITY           SKY/WX    TMP DP  RH WIND       PRES   REMARKS
BELLEVILLE     CLEAR     73  73 100 VRB2      29.87F
CAHOKIA*       MOCLDY    76  72  87 S6        29.87R
SPARTA*        PTCLDY    74  72  94 S8        29.92S
$$

ILZ064>066-069>071-074>076-080>082-084>086-088>090-092>094-011100-
SOUTH-CENTRAL ILLINOIS

CITY           SKY/WX    TMP DP  RH WIND       PRES   REMARKS
CARBONDALE     CLOUDY    76  71  85 SW15      29.94R
CAIRO*         MOCLDY    76  73  88 S6        29.95F
EFFINGHAM*     PTCLDY    73  69  89 S5        29.90F
MARION         CLOUDY    77  73  88 SW12      29.95R
MT. VERNON     CLOUDY    73  70  88 S10       29.93S
CENTRALIA*     CLEAR     72  70  94 S9        29.91F
SALEM*         PTCLDY    75  73  94 S9        29.91F
METROPOLIS*    CLOUDY    75  75 100 S7        29.95F
$$

ILZ067-068-072-073-078-083-087-091-011100-
SOUTHEAST ILLINOIS

CITY           SKY/WX    TMP DP  RH WIND       PRES   REMARKS
LAWRENCEVILLE  PTCLDY    73  72  96 S7        29.93F
FLORA*         PTCLDY    72  71  97 S8        29.93R
FAIRFIELD*     PTCLDY    73  73 100 S6        29.94R
HARRISBURG*    CLOUDY    75  74  97 SW8       29.96R
ROBINSON*      CLEAR     74  73  97 S7        29.93S
CARMI*         PTCLDY    74  73  97 S7        29.94S
$$

ABBREVIATIONS USED IN REMARKS
   TC - TEMPERATURE IN CELSIUS
  WCI - WIND CHILL INDEX
   HX - HEAT INDEX
  VSB - VISIBILITY
$$




USA.gov is the U.S. government's official web portal to all federal, state and local government web resources and services.